Погода в Шапеко

Бразилия     27°06′46″S   52°36′42″W
темп.,
°C
ветер,
м/с
пор.,
м/с
влажн.,
%
обл.,
%
осадки,
мм/ч
давл.,
гПа
погр.,
м
27 февраля, сб
сб2700:00+18в24870 0.0 1015128
03:00+16вюв22920 0.0 101563
06:00+14юв12960 0.0 101625
09:00+22вюв37660 0.0 1017763
12:00+28юв34480 0.0 10161557
15:00+29в354713 0.3 10141852
18:00+22вюв4119032 1.7 1013539
21:00+18вюв2139217 1.8 1016560
28 февраля, вс
вс2800:00+17юв213970 0.0 1016830
03:00+15ююв12970 0.0 101540
06:00+15вюв12970 0.0 101532
09:00+21в37720 0.0 1016852
12:00+29всв24460 0.0 10141676
15:00+23св128541 0.4 101167
18:00+24вюв118040 0.5 101054
21:00+19вюв279519 0.9 1012190
1 марта, пн
пн100:00+17в12950 0.0 101327
03:00+16в11970 0.0 101126
06:00+16в11970 0.0 101225
09:00+23ссв15750 0.0 1013562
12:00+25ссз25780 1.9 1012928
15:00+27з01801 6.2 1009597
18:00+24ююв23922 3.8 1009152
21:00+19в12951 3.8 101130
2 марта, вт
вт200:00+18в12950 0.0 101224
03:00+17ссв12950 0.0 101126
06:00+17ссв22970 0.0 101259
09:00+23ссз27800 0.0 1013538
12:00+24сз269056 8.4 1012576
15:00+25зсз129078 16.9 1010230
18:00+23вюв1192100 2.4 101024
21:00+20всв1295100 2.4 101323
3 марта, ср
ср300:00+19всв12960 0.0 101425
03:00+18ссв12970 0.0 101336
06:00+17св12980 0.0 101429
09:00+23с14800 0.0 1015428
12:00+28сз34600 0.2 10131208
15:00+30з225818 1.7 10121383
18:00+24вюв119299 3.1 101124
21:00+21в1295100 3.3 101323